Location: Ceske Budejovice
(48.9830°N, 14.4670°E)
Time: 17:22:06
(UTC+01:00)

ISS - Pass Details

Date: 22 November 2019
Orbit: 411 x 421 km, 51.6° (Epoch: 14 December)

Event Time Altitude Azimuth Distance (km) Brightness Sun altitude
Rises 18:24:28 0° 214° (SW) 2,346 0.6 -20.9°
Reaches altitude 10° 18:26:45 10° 201° (SSW) 1,490 -0.6 -21.3°
Enters shadow 18:28:11 19° 182° (S) 1,057 -1.7 -21.5°
